When you browse on this site, cookies collect data to enhance your experience and personalize the content and advertising you see.
Visit our Privacy Policy to learn more. By continuing to use the site, you agree to this use of cookies and data.
  • în România
  • Lista ţărilor
  • Pe 7 zile
  • Temperatura apei
  • Hartă satelitară
  • Meteo pe hartă
  • Widget-uri
  • user-avatar
    Intrare

    Meteo pe oră la Kingston upon Thames

    Astăzi, 19 Aprilie, Vineri

    Timp Temperatura Precipitaţii Vânt Presiune Umiditate
    00:00 +12°C° 0 mm 3 m/s 768 mmHg 69%
    01:00 +12°C° 0 mm 3 m/s 768 mmHg 72%
    02:00 +11°C° 0 mm 3 m/s 768 mmHg 76%
    03:00 +11°C° 0 mm 3 m/s 768 mmHg 80%
    04:00 +11°C° 0 mm 3 m/s 768 mmHg 80%
    05:00 +11°C° 0 mm 3 m/s 768 mmHg 81%
    06:00 +11°C° 0 mm 3 m/s 769 mmHg 82%
    07:00 +13°C° 0 mm 3 m/s 769 mmHg 76%
    08:00 +14°C° 0 mm 3 m/s 769 mmHg 70%
    09:00 +17°C° 0 mm 4 m/s 769 mmHg 64%
    10:00 +18°C° 0 mm 4 m/s 770 mmHg 59%
    11:00 +20°C° 0 mm 4 m/s 770 mmHg 54%
    12:00 +21°C° 0 mm 4 m/s 770 mmHg 48%
    13:00 +21°C° 0 mm 4 m/s 770 mmHg 47%
    14:00 +21°C° 0 mm 4 m/s 770 mmHg 46%
    15:00 +22°C° 0 mm 4 m/s 770 mmHg 45%
    16:00 +21°C° 0 mm 4 m/s 770 mmHg 49%
    17:00 +19°C° 0 mm 3 m/s 770 mmHg 53%
    18:00 +18°C° 0 mm 3 m/s 770 mmHg 56%
    19:00 +17°C° 0 mm 3 m/s 770 mmHg 60%
    20:00 +16°C° 0 mm 3 m/s 771 mmHg 64%
    21:00 +14°C° 0 mm 2 m/s 771 mmHg 68%
    22:00 +14°C° 0 mm 2 m/s 771 mmHg 70%
    23:00 +13°C° 0 mm 2 m/s 771 mmHg 73%

    Mâine, 20 Aprilie, Sâmbătă

    Timp Temperatura Precipitaţii Vânt Presiune Umiditate
    00:00 +12°C° 0 mm 2 m/s 771 mmHg 75%
    01:00 +12°C° 0 mm 2 m/s 771 mmHg 77%
    02:00 +12°C° 0 mm 2 m/s 771 mmHg 79%
    03:00 +10°C° 0 mm 3 m/s 771 mmHg 81%
    04:00 +10°C° 0 mm 3 m/s 771 mmHg 82%
    05:00 +10°C° 0 mm 3 m/s 771 mmHg 83%
    06:00 +10°C° 0 mm 3 m/s 771 mmHg 84%
    07:00 +12°C° 0 mm 3 m/s 771 mmHg 78%
    08:00 +14°C° 0 mm 3 m/s 771 mmHg 73%
    09:00 +17°C° 0 mm 3 m/s 771 mmHg 68%
    10:00 +19°C° 0 mm 3 m/s 771 mmHg 62%
    11:00 +20°C° 0 mm 3 m/s 771 mmHg 57%
    12:00 +22°C° 0 mm 3 m/s 770 mmHg 52%
    13:00 +22°C° 0 mm 3 m/s 770 mmHg 50%
    14:00 +22°C° 0 mm 3 m/s 770 mmHg 48%
    15:00 +24°C° 0 mm 3 m/s 769 mmHg 46%
    16:00 +22°C° 0 mm 3 m/s 769 mmHg 50%
    17:00 +21°C° 0 mm 3 m/s 769 mmHg 54%
    18:00 +20°C° 0 mm 3 m/s 769 mmHg 58%
    19:00 +18°C° 0 mm 2 m/s 769 mmHg 61%
    20:00 +16°C° 0 mm 2 m/s 769 mmHg 64%
    21:00 +15°C° 0 mm 2 m/s 769 mmHg 67%
    22:00 +14°C° 0 mm 2 m/s 769 mmHg 69%
    23:00 +13°C° 0 mm 2 m/s 768 mmHg 71%

    Poimâine, 21 Aprilie, Duminică

    Timp Temperatura Precipitaţii Vânt Presiune Umiditate
    00:00 +13°C° 0 mm 2 m/s 768 mmHg 72%
    01:00 +12°C° 0 mm 2 m/s 768 mmHg 74%
    02:00 +12°C° 0 mm 2 m/s 767 mmHg 76%
    03:00 +10°C° 0 mm 2 m/s 767 mmHg 78%
    04:00 +10°C° 0 mm 2 m/s 766 mmHg 79%
    05:00 +10°C° 0 mm 2 m/s 766 mmHg 80%
    06:00 +10°C° 0 mm 2 m/s 766 mmHg 81%
    07:00 +13°C° 0 mm 2 m/s 765 mmHg 75%
    08:00 +15°C° 0 mm 2 m/s 765 mmHg 69%
    09:00 +18°C° 0 mm 2 m/s 765 mmHg 64%
    10:00 +19°C° 0 mm 2 m/s 764 mmHg 57%
    11:00 +20°C° 0 mm 2 m/s 764 mmHg 50%
    12:00 +21°C° 0 mm 2 m/s 763 mmHg 43%
    13:00 +23°C° 0 mm 2 m/s 763 mmHg 43%
    14:00 +23°C° 0 mm 2 m/s 762 mmHg 43%
    15:00 +23°C° 0 mm 2 m/s 761 mmHg 43%
    16:00 +21°C° 0 mm 2 m/s 761 mmHg 48%
    17:00 +20°C° 0 mm 2 m/s 760 mmHg 54%
    18:00 +19°C° 0 mm 2 m/s 760 mmHg 60%
    19:00 +18°C° 0 mm 2 m/s 760 mmHg 65%
    20:00 +16°C° 0 mm 2 m/s 760 mmHg 71%
    21:00 +15°C° 0 mm 2 m/s 760 mmHg 76%
    22:00 +14°C° 0 mm 2 m/s 759 mmHg 77%
    23:00 +13°C° 0 mm 1 m/s 759 mmHg 78%

    22 Aprilie, Luni

    Timp Temperatura Precipitaţii Vânt Presiune Umiditate
    00:00 +13°C° 0 mm 1 m/s 758 mmHg 79%
    01:00 +12°C° 0 mm 1 m/s 758 mmHg 79%
    02:00 +12°C° 0 mm 1 m/s 757 mmHg 80%
    03:00 +12°C° 0 mm 1 m/s 756 mmHg 80%
    04:00 +12°C° 0 mm 1 m/s 756 mmHg 80%
    05:00 +12°C° 0 mm 1 m/s 756 mmHg 80%
    06:00 +12°C° 0 mm 2 m/s 755 mmHg 80%
    07:00 +14°C° 0 mm 2 m/s 755 mmHg 73%
    08:00 +17°C° 0 mm 2 m/s 755 mmHg 66%
    09:00 +19°C° 0 mm 2 m/s 755 mmHg 59%
    10:00 +20°C° 0 mm 2 m/s 754 mmHg 55%
    11:00 +21°C° 0 mm 3 m/s 754 mmHg 50%
    12:00 +22°C° 0 mm 3 m/s 754 mmHg 46%
    13:00 +22°C° 0 mm 3 m/s 753 mmHg 47%
    14:00 +22°C° 0 mm 4 m/s 753 mmHg 47%
    15:00 +22°C° 0 mm 4 m/s 752 mmHg 48%
    16:00 +21°C° 0 mm 4 m/s 752 mmHg 51%
    17:00 +20°C° 0 mm 4 m/s 751 mmHg 55%
    18:00 +19°C° 0 mm 3 m/s 751 mmHg 59%
    19:00 +18°C° 0 mm 3 m/s 751 mmHg 60%
    20:00 +16°C° 0 mm 3 m/s 751 mmHg 62%
    21:00 +14°C° 0 mm 3 m/s 751 mmHg 63%
    22:00 +14°C° 0 mm 3 m/s 750 mmHg 65%
    23:00 +13°C° 0 mm 3 m/s 750 mmHg 66%

    23 Aprilie, Marţi

    Timp Temperatura Precipitaţii Vânt Presiune Umiditate
    00:00 +13°C° 0 mm 3 m/s 750 mmHg 67%
    01:00 +13°C° 0.1 mm 3 m/s 749 mmHg 69%
    02:00 +13°C° 0.1 mm 3 m/s 749 mmHg 71%
    03:00 +14°C° 0.1 mm 2 m/s 749 mmHg 73%
    04:00 +13°C° 0.1 mm 3 m/s 749 mmHg 75%
    05:00 +13°C° 0.1 mm 3 m/s 748 mmHg 78%
    06:00 +13°C° 0.1 mm 3 m/s 748 mmHg 80%
    07:00 +14°C° 0 mm 3 m/s 748 mmHg 77%
    08:00 +17°C° 0 mm 3 m/s 749 mmHg 74%
    09:00 +18°C° 0 mm 4 m/s 749 mmHg 70%
    10:00 +19°C° 0.3 mm 4 m/s 749 mmHg 66%
    11:00 +20°C° 0.3 mm 4 m/s 749 mmHg 62%
    12:00 +21°C° 0.3 mm 5 m/s 748 mmHg 58%
    13:00 +21°C° 0.2 mm 4 m/s 748 mmHg 57%
    14:00 +21°C° 0.2 mm 4 m/s 748 mmHg 56%
    15:00 +21°C° 0.2 mm 4 m/s 748 mmHg 55%
    16:00 +20°C° 0 mm 3 m/s 748 mmHg 58%
    17:00 +20°C° 0 mm 3 m/s 748 mmHg 60%
    18:00 +19°C° 0 mm 3 m/s 748 mmHg 63%
    19:00 +18°C° 0 mm 3 m/s 749 mmHg 68%
    20:00 +17°C° 0 mm 3 m/s 749 mmHg 72%
    21:00 +14°C° 0 mm 3 m/s 749 mmHg 76%
    22:00 +14°C° 0 mm 3 m/s 749 mmHg 77%
    23:00 +14°C° 0 mm 3 m/s 749 mmHg 78%

    24 Aprilie, Miercuri

    Timp Temperatura Precipitaţii Vânt Presiune Umiditate
    00:00 +13°C° 0 mm 3 m/s 749 mmHg 78%
    01:00 +13°C° 0 mm 3 m/s 749 mmHg 80%
    02:00 +13°C° 0 mm 3 m/s 749 mmHg 82%
    03:00 +13°C° 0 mm 3 m/s 749 mmHg 84%
    04:00 +14°C° 0.1 mm 2 m/s 749 mmHg 85%
    05:00 +14°C° 0.1 mm 2 m/s 750 mmHg 87%
    06:00 +14°C° 0.1 mm 2 m/s 750 mmHg 88%
    07:00 +15°C° 0.1 mm 2 m/s 750 mmHg 84%
    08:00 +16°C° 0.1 mm 2 m/s 751 mmHg 80%
    09:00 +17°C° 0.1 mm 3 m/s 751 mmHg 76%
    10:00 +18°C° 0 mm 3 m/s 751 mmHg 72%
    11:00 +19°C° 0 mm 4 m/s 751 mmHg 69%
    12:00 +19°C° 0 mm 5 m/s 752 mmHg 65%
    13:00 +19°C° 0 mm 4 m/s 751 mmHg 67%
    14:00 +19°C° 0 mm 4 m/s 751 mmHg 68%
    15:00 +18°C° 0 mm 4 m/s 751 mmHg 69%
    16:00 +18°C° 0.2 mm 4 m/s 751 mmHg 72%
    17:00 +17°C° 0.2 mm 3 m/s 752 mmHg 76%
    18:00 +16°C° 0.2 mm 3 m/s 752 mmHg 79%
    19:00 +16°C° 0.2 mm 3 m/s 752 mmHg 82%
    20:00 +14°C° 0.2 mm 3 m/s 752 mmHg 84%
    21:00 +14°C° 0.2 mm 2 m/s 753 mmHg 87%
    22:00 +14°C° 0.1 mm 2 m/s 753 mmHg 88%
    23:00 +14°C° 0.1 mm 1 m/s 753 mmHg 89%
    Arată mai mult